Location: Sternwarte_Laufen
(47.9344°N, 12.9346°E)
Time: 03:28:45
(UTC+02:00)

ISS - Pass Details

Date: 12 July 2025
Orbit: 413 x 417 km, 51.6° (Epoch: 12 July)

Event Time Altitude Azimuth Distance (km) Brightness Sun altitude
Rises 02:48:04 0° 291° (WNW) 2,358 0.0 -17.0°
Reaches altitude 10° 02:50:14 10° 284° (WNW) 1,493 -1.1 -16.8°
Enters shadow 02:52:03 26° 264° (W) 854 -2.5 -16.7°
